PEGASUS DEB, 24236

Orbit data source: Space-Track

PEGASUS DEB, 24236 is space debris in LEO originally from a launch on Thu, 19 May 1994 UTC launched from the Air Force Western Test Range (AFWTR). Debris objects in space refer to the collection of defunct objects orbiting the Earth. Examples of debris include non-operational satellites, rocket bodies, and fragments generated from explosions, collisions, or faulty payload assembly.

Loading next visibility...
Identifier
24236, 1994-029LK
Orbit
LEO
Country
Flag of USUS
Related business
Manufacturer
Unknown
Mission
Spacecraft
Bus & Motor
Unknown
Mass
Unknown
Launch date (UTC)
1994-05-19 (32 years ago)
Launch vehicle
Unknown
Launch site
Air Force Western Test Range (AFWTR)
Object type
Payload
Rocket body
Debris
Shape & HBR
Unknown shape, 0.1 m
Radar Cross Section
Medium (>0.1 m² and <1 m²)

Expand to show TLE details & history
Last TLE update: 18 hours ago

TLE from 18 hours ago
0 PEGASUS DEB
1 24236U 94029LK  26177.78266131  .00003635  00000-0  43561-3 0  9997
2 24236  81.4306 303.9094 0305658 319.7161  38.1738 14.55812738536259
Epoch: 2026-06-26T18:47Z
TLE epoch observation values (Epoch: 2026-06-26T18:47:01.937Z)
Latitude
0.00002°
Longitude
107.24511°
Altitude
542.047 km
Speed
7.681 km/s
True Right ascension
20h 15m 38s
True Declination
0° 00' 00"
Sunlit
Object was in full shadow at epoch
Visualization orbit readout
Latitude
Unknown
Longitude
Unknown
Altitude
Unknown
Speed
Unknown
Apparent Right ascension
Unknown
Apparent Declination
Unknown
Sunlit
N/A
Visualization observer readout
Local Sidereal Time
00:33:30
Azimuth
Unknown
Elevation
Unknown
Doppler factor
Unknown
Orbital elements
Apogee altitude
920.293 km
Perigee altitude
487.361 km
Semi-major axis
7,081.964 km
Eccentricity
0.03057
Inclination
81.4306°
RAAN
303.9094°
Arg. of periapsis
319.7161°
True anomaly
40.40495°
Mean anomaly
38.1738°
Eccentric anomaly
39.28262°
Mean motion
3.64177 °/min
Orbital period
98.85 mins
BSTAR
0.00043561
Loading maneuver chart data...
Computing Atmospheric mass density...

Documentation

Showing up to 5 results
|